Tracking 35274 objects as of 10-Sep-2026
HD Live streaming from Space Station
objects crossing your sky now

H-1 R/B(1)


H-1 R/B(1) is no longer on orbit


NORAD ID: 19509
Int'l Code: 1988-086B
Launch date: September 16, 1988
Source: Japan (JPN)
Launch site: TANEGASHIMA SPACE CENTER (TNSTA)
Decay date: 1988-09-21

Note: This is a ROCKET BODY
Your satellite tracking list
Your tracking list is empty




NASA's NSSDC Master Catalog

Two Line Element Set (TLE):
1 19509U 88086  B 88265.04470269  .07912094 -24700-4 +10961-2 0  9994
2 19509 030.7140 144.4305 0043714 220.9003 139.2091 16.30617742000751
Source of the keplerian elements: AFSPC